Content
SEND FEEDBACK

Daily
Averages
Monthly
Summary
United States of America

DUNKIRK, MARYLAND


Home > North America > United States > Maryland
Elevation: 29 meters     Latitude: 38 41N     Longitude: 076 40W

WEATHER
 
SELECT A DAY
Number of Records: 422,301;   Date Range: 1/1/95 - 8/25/14
 
SHARE

PRINT THIS DATA

[ ← Previous Day ]
WEATHER ALMANAC - 31 JANUARY, 2013
[ Next Day → ]
[ °F ]   °C
Weather ElementAverageHighLow
Temperature11.9 °C18 °C (12:42 am)-1.1 °C (11:55 pm)
Dewpoint5.9 °C17 °C (12:54 am)-12.1 °C (9:55 pm)
Humidity69.8 %94 % (12:54 am)31 % (1:55 pm)
Barometer995.9 hPa1013.5 hPa (10:55 pm)987.8 hPa (1:21 am)
Wind Speed32.7 km/h48.1 km/h (1:16 am)
Wind Gust76 km/h (4:42 am)
Weather ElementAverage
Visibility11.6 km
Wind DirectionWSW (246 °)

Weather ElementTotal
Precipitation41.91 mm
Heating Degree Days9.9 (Base 18.3)
Averaged from 50 records on 31 January, 2013
WEATHER CONDITIONS BREAKOUT
WIND DIRECTION BREAKOUT
WEATHER BY HOUR - 31 JANUARY, 2013
[ °F ]   °C
Local TimeTemperatureDewpointHumidityBarometerVisibilityWind DirectionWind SpeedGust SpeedPrecipitationEventsConditions
12:42 AM18 °C16 °C88 %989.2 hPa12.9 kmSouth (180°)44.4 km/h64.9 km/hMostly Cloudy
12:47 AM18 °C16 °C88 %989.2 hPa8 kmSouth (180°)33.3 km/h61.2 km/hRainHeavy Rain
12:48 AM18 °C16 °C88 %989.2 hPa6.4 kmSouth (180°)33.3 km/h61.2 km/hRainHeavy Rain
12:54 AM18 °C17 °C94 %989.2 hPa4 kmSW (220°)31.5 km/h48.1 km/hRainRain
12:56 AM18 °C17 °C94 %988.8 hPa4 kmSW (220°)33.3 km/h48.1 km/hRainHeavy Rain
1:00 AM18 °C17 °C94 %989.2 hPa2.9 kmSSW (210°)40.7 km/h50.1 km/hRainHeavy Rain
1:03 AM18 °C17 °C94 %988.8 hPa1.9 kmSSW (200°)38.9 km/h50.1 km/hRainHeavy Rain
1:05 AM18 °C17 °C94 %988.8 hPa1.6 kmSSW (200°)40.7 km/h51.8 km/hRainHeavy Rain
1:11 AM18 °C17 °C94 %988.8 hPa1.6 kmSSW (210°)38.9 km/h51.8 km/hRainHeavy Rain
1:12 AM18 °C17 °C94 %988.8 hPa1.9 kmSSW (200°)42.6 km/h59.2 km/hRainHeavy Rain
1:16 AM18 °C17 °C94 %988.5 hPa2.4 kmSSW (200°)48.1 km/h61.2 km/hRainHeavy Rain
1:21 AM18 °C17 °C94 %987.8 hPa3.2 kmSouth (190°)38.9 km/h61.2 km/hRainHeavy Rain
1:24 AM18 °C17 °C94 %987.8 hPa4.8 kmSSW (200°)40.7 km/h61.2 km/hRainRain
1:29 AM18 °C17 °C94 %988.1 hPa11.3 kmSSW (200°)44.4 km/h53.8 km/hRainLight Rain
1:37 AM18 °C17 °C94 %988.1 hPa8 kmSSW (210°)40.7 km/h57.5 km/hOvercast
1:38 AM18 °C17 °C94 %988.1 hPa8 kmSSW (210°)44.4 km/h57.5 km/hOvercast
1:39 AM18 °C17 °C94 %988.1 hPa6.4 kmSW (220°)44.4 km/h57.5 km/hRainLight Rain
1:45 AM18 °C17 °C94 %988.8 hPa6.4 kmWest (260°)37 km/h51.8 km/hRainRain
1:46 AM18 °C17 °C94 %989.2 hPa6.4 kmWest (260°)40.7 km/h61.2 km/hRainRain
1:50 AM17 °C16 °C94 %989.5 hPa6.4 kmWest (270°)31.5 km/h61.2 km/hRainLight Rain
1:55 AM17.1 °C14.8 °C86 %990.5 hPa9.7 kmWest (260°)42.6 km/h61.2 km/h19.81 mmRainRain
1:56 AM17 °C15 °C88 %990.5 hPa9.7 kmWest (260°)38.9 km/h61.2 km/hRainRain
2:55 AM14.5 °C12.1 °C86 %989.5 hPa16.1 kmSW (230°)37 km/h50.1 km/h5.84 mmRainLight Rain
3:03 AM15 °C11 °C77 %989.2 hPa16.1 kmWSW (240°)31.5 km/h46.3 km/hOvercast
3:15 AM15 °C12 °C82 %989.2 hPa16.1 kmSW (220°)24.1 km/h51.8 km/hRainLight Rain
3:37 AM14 °C11 °C82 %989.2 hPa16.1 kmSSW (210°)31.5 km/h40.7 km/hOvercast
3:55 AM14.1 °C9.6 °C74 %989.2 hPa16.1 kmSW (230°)31.5 km/h51.8 km/h0.51 mmOvercast
4:42 AM13 °C7 °C67 %991.2 hPa16.1 kmWNW (290°)42.6 km/h76 km/hOvercast
4:55 AM11.5 °C4.7 °C63 %991.9 hPa16.1 kmWNW (300°)31.5 km/h50.1 km/h0.76 mmOvercast
5:09 AM11 °C4 °C62 %992.6 hPa16.1 kmWNW (290°)24.1 km/h38.9 km/hLight Drizzle
5:46 AM9 °C2 °C62 %994.6 hPa16.1 kmWNW (300°)22.2 km/h38.9 km/hOvercast
5:55 AM8.8 °C1.7 °C61 %994.9 hPa16.1 kmWNW (290°)25.9 km/h42.6 km/h0 mmOvercast
6:55 AM8.3 °C-0.9 °C53 %997.3 hPa16.1 kmWNW (300°)31.5 km/h50.1 km/hScattered Clouds
7:55 AM6.5 °C-1.9 °C55 %999.7 hPa16.1 kmNW (310°)31.5 km/h46.3 km/h3.56 mmClear
8:55 AM6.1 °C-3.4 °C51 %1001.4 hPa16.1 kmWNW (300°)27.8 km/h40.7 km/hScattered Clouds
9:55 AM6.4 °C-4.9 °C45 %1003 hPa16.1 kmWNW (290°)35.2 km/h57.5 km/h2.54 mmClear
10:55 AM6.6 °C-7.7 °C36 %1003.7 hPa16.1 kmWNW (300°)24.1 km/h40.7 km/h0.25 mmClear
11:55 AM7.5 °C-6.9 °C36 %1004.1 hPa16.1 kmWest (280°)27.8 km/h46.3 km/h0.51 mmClear
12:55 PM6.6 °C-8.1 °C35 %1004.7 hPa16.1 kmWNW (290°)38.9 km/h57.5 km/h3.05 mmScattered Clouds
1:55 PM6.9 °C-9.4 °C31 %1004.7 hPa16.1 kmWest (280°)37 km/h51.8 km/h3.56 mmPartly Cloudy
2:55 PM5.8 °C-7.7 °C38 %1006.1 hPa16.1 kmNW (310°)33.3 km/h46.3 km/h1.27 mmScattered Clouds
3:55 PM5.1 °C-8.2 °C38 %1007.5 hPa16.1 kmWNW (290°)27.8 km/h38.9 km/hScattered Clouds
4:55 PM4 °C-10.4 °C35 %1009.1 hPa16.1 kmWNW (290°)22.2 km/h46.3 km/h0.25 mmClear
5:55 PM3.3 °C-10.3 °C37 %1010.2 hPa16.1 kmWest (260°)22.2 km/h31.5 km/hPartly Cloudy
6:55 PM3.1 °C-9.9 °C38 %1011.2 hPa16.1 kmWNW (300°)29.6 km/h40.7 km/hScattered Clouds
7:55 PM1.4 °C-10.9 °C40 %1012.5 hPa16.1 kmWNW (300°)24.1 km/h40.7 km/hPartly Cloudy
8:55 PM0.4 °C-11.9 °C40 %1012.9 hPa16.1 kmNW (310°)18.5 km/hClear
9:55 PM0 °C-12.1 °C40 %1012.9 hPa16.1 kmNW (320°)13 km/hClear
10:55 PM-0.2 °C-11.7 °C42 %1013.5 hPa16.1 kmVariable7.4 km/hPartly Cloudy
11:55 PM-1.1 °C-10.5 °C49 %1013.5 hPa16.1 kmSW (230°)7.4 km/hMostly Cloudy
Hourly data recorded from KADW, located 0 kilometers away from Dunkirk, Maryland







STORIES FROM OUR PARTNERS